FW8306 Weather Reports


time (UTC)temp
F
wind
direction
speed
knots
gust
knots
rain 1hr
in
rain 24hr
in
rain mn
in
humidity
%
barometer
mb
20260831133103 69 0.0 0.0 0.00 0.26 0.14 80 1007.1
20260831131603 69 0.0 0.0 0.00 0.26 0.14 82 1007.1
20260831130110 68 0.0 0.0 0.00 0.26 0.14 83 1007.0
20260831124559 68 0.0 0.0 0.00 0.26 0.14 84 1007.0
20260831123103 68 0.0 0.0 0.00 0.26 0.14 83 1007.0
20260831121602 67 0.0 0.0 0.00 0.26 0.14 84 1007.1
20260831120144 68 0.0 0.0 0.00 0.26 0.14 85 1007.3
20260831114610 67 0.0 0.0 0.00 0.28 0.14 87 1007.3
20260831113104 66 0.0 0.0 0.00 0.28 0.14 91 1007.2
20260831111602 65 0.0 0.0 0.00 0.28 0.14 93 1007.4
20260831110105 64 0.0 0.0 0.00 0.28 0.14 93 1007.7
20260831104607 64 0.0 0.0 0.00 0.35 0.14 92 1007.8
20260831103100 64 0.0 0.0 0.00 0.35 0.14 92 1007.8
20260831101611 65 0.0 0.0 0.00 0.35 0.14 92 1007.8
20260831100115 65 0.0 0.0 0.00 0.35 0.14 94 1007.8
20260831094603 64 0.0 0.0 0.00 0.36 0.14 95 1007.9
20260831093110 63 0.0 0.0 0.00 0.36 0.14 96 1008.1
20260831091606 63 0.0 0.0 0.00 0.36 0.14 96 1008.0
20260831090115 62 0.0 0.0 0.00 0.36 0.14 96 1008.3
20260831084609 62 0.0 0.0 0.09 0.36 0.14 96 1008.4
20260831083102 62 0.0 0.0 0.14 0.36 0.14 96 1008.4
20260831081609 62 0.0 0.0 0.14 0.36 0.14 96 1008.3
20260831080058 62 0.0 0.0 0.14 0.36 0.14 96 1008.2
20260831074600 62 0.0 0.0 0.03 0.25 0.03 96 1008.5
20260831073058 61 0.0 0.0 0.00 0.22 0.00 96 1008.6
20260831071615 61 0.0 0.0 0.00 0.22 0.00 96 1008.6
20260831070110 61 0.0 0.0 0.00 0.22 0.00 97 1008.8
20260831064600 61 0.0 0.0 0.00 0.22 0.00 97 1008.7
20260831063101 60 0.0 0.0 0.00 0.22 0.00 97 1008.5
20260831061610 59 0.0 0.0 0.00 0.22 0.00 97 1008.5
20260831060111 58 0.0 0.0 0.00 0.22 0.00 97 1008.6
20260831054601 55 0.0 0.0 0.00 0.25 0.00 97 1008.7
20260831053151 53 0.0 0.0 0.00 0.25 0.00 96 1008.8
20260831051607 53 0.0 0.0 0.00 0.25 0.00 96 1008.9
20260831050121 53 0.0 0.0 0.00 0.25 0.00 96 1009.0
20260831044603 53 0.0 0.0 0.00 0.28 0.00 95 1009.1
20260831043058 53 0.0 0.0 0.00 0.28 0.00 95 1009.3
20260831041615 53 0.0 0.0 0.00 0.28 0.00 95 1009.1
20260831034609 54 0.0 0.0 0.00 0.28 0.00 95 1009.1
20260831033113 54 0.0 0.0 0.00 0.28 0.00 95 1009.0
20260831031606 55 0.0 0.0 0.00 0.28 0.00 95 1009.2
20260831024602 55 0.0 0.0 0.00 0.28 0.00 95 1009.4
20260831023058 55 0.0 0.0 0.00 0.28 0.00 95 1009.4
20260831021602 56 0.0 0.0 0.00 0.28 0.00 95 1009.4
20260831020110 56 0.0 0.0 0.00 0.28 0.00 95 1009.6
20260831014558 56 0.0 0.0 0.00 0.29 0.00 95 1009.6
20260831013106 56 0.0 0.0 0.00 0.29 0.00 95 1009.4
20260831011601 57 0.0 0.0 0.00 0.29 0.00 95 1009.4
20260831010100 57 0.0 0.0 0.00 0.29 0.00 95 1009.6
20260831004603 57 0.0 0.0 0.00 0.29 0.00 95 1009.7
20260831003058 57 0.0 0.0 0.00 0.29 0.00 94 1009.6
20260831001602 57 0.0 0.0 0.00 0.29 0.00 94 1009.6
20260831000112 57 0.0 0.0 0.00 0.29 0.00 94 1009.5
20260830234602 57 0.0 0.0 0.00 0.29 0.00 93 1009.5
20260830233057 57 0.0 0.0 0.00 0.29 0.00 93 1009.5
20260830231558 57 0.0 0.0 0.00 0.29 0.00 93 1009.5
20260830230057 58 0.0 0.0 0.00 0.29 0.00 93 1009.5
20260830224600 58 0.0 0.0 0.00 0.29 0.00 93 1009.5
20260830223059 59 0.0 0.0 0.00 0.29 0.00 93 1009.4
20260830221557 59 0.0 0.0 0.00 0.29 0.00 92 1009.4
20260830214601 59 0.0 0.0 0.00 0.29 0.29 92 1009.3
20260830213057 60 0.0 0.0 0.00 0.29 0.29 92 1009.2
20260830211610 60 0.0 0.0 0.00 0.29 0.29 92 1009.2
20260830204559 60 0.0 0.0 0.00 0.29 0.29 93 1009.0
20260830203100 60 0.0 0.0 0.00 0.29 0.29 93 1008.9
20260830201605 61 0.0 0.0 0.00 0.29 0.29 93 1009.0
20260830200058 61 0.0 0.0 0.00 0.29 0.29 94 1008.8
20260830194606 61 0.0 0.0 0.00 0.29 0.29 93 1008.6
20260830193101 62 0.0 0.0 0.00 0.29 0.29 93 1008.4
20260830191603 62 0.0 0.0 0.00 0.29 0.29 93 1008.2
20260830190104 62 0.0 0.0 0.00 0.29 0.29 93 1007.9
20260830184612 62 0.0 0.0 0.00 0.29 0.29 93 1007.7
20260830183103 62 0.0 0.0 0.00 0.29 0.29 92 1007.5
20260830181559 62 0.0 0.0 0.00 0.29 0.29 92 1007.2
20260830180117 63 0.0 0.0 0.00 0.29 0.29 92 1006.9
20260830174611 63 0.0 0.0 0.00 0.29 0.29 92 1006.8
20260830173129 64 0.0 0.0 0.00 0.29 0.29 93 1006.5
20260830171618 64 0.0 0.0 0.00 0.29 0.29 93 1006.1
20260830170109 65 0.0 0.0 0.00 0.29 0.29 93 1005.7
20260830164556 65 0.0 0.0 0.00 0.29 0.29 93 1005.4
20260830163102 66 0.0 0.0 0.11 0.29 0.29 93 1004.8
20260830161607 66 0.0 0.0 0.11 0.29 0.29 93 1004.6
20260830160109 67 0.0 0.0 0.11 0.29 0.29 94 1004.3
20260830154602 67 0.0 0.0 0.10 0.28 0.28 93 1004.1
20260830153101 68 0.0 0.0 0.00 0.18 0.18 91 1003.7
20260830151609 68 0.0 0.0 0.00 0.18 0.18 92 1003.6
20260830150106 67 0.0 0.0 0.00 0.18 0.18 94 1003.6
20260830144608 66 0.0 0.0 0.00 0.18 0.18 93 1003.6
20260830143107 66 0.0 0.0 0.00 0.17 0.17 92 1003.5
20260830141602 66 0.0 0.0 0.00 0.17 0.17 92 1003.5
20260830140108 66 0.0 0.0 0.00 0.17 0.17 93 1003.5
20260830134602 66 0.0 0.0 0.00 0.17 0.17 93 1003.4